Retour au catalogue

COSMOS 1199

ActifNavigationLEO
NORAD 11882·PAYLOAD·🇷🇺 Russia

Lancé Jul 9, 1980 depuis Plesetsk Cosmodrome

Loading…

Prochains Passages (prochaines 24 heures)

TLE

FraisSource: Space-Track

Époque: Sep 14, 2026, 14:04 UTC

1 11882U 80058H   26257.58644905 -.00000015  00000-0  16537-5 0  9998
2 11882  74.0181 204.2460 0036508 183.6141 350.0033 12.41207385 92522

Suivez COSMOS 1199 en temps réel avec AllMySat

Download on the App Store